RYR865P LFML-LIMJ

Flight info

Callsign RYR865P
Flight time N/A
Altitude 35000
Route TINOT M731 BATIV DCT PELOS DCT IPROM DCT GIANO DCT PAL DCT BEKIV DCT ENEPA DCT LIBRO
Aircraft B738/M-SDE3FGILRWY/SB1

Departure

Time N/A
Airport Marseille Provence Airport (LFML)

Arrival

Time 2026-04-16 14:24
Airport Genoa Cristoforo Colombo Airport (LIMJ)
Time Latitude Longitude Altitude Speed Heading
2026-04-16 14:21 44.38014 8.99050 2054 ft 148 kts 289°
2026-04-16 14:21 44.38315 8.97661 1872 ft 150 kts 288°
2026-04-16 14:21 44.38615 8.96274 1645 ft 148 kts 287°
2026-04-16 14:22 44.38915 8.94913 1424 ft 145 kts 289°
2026-04-16 14:22 44.39278 8.93588 1241 ft 148 kts 290°
2026-04-16 14:22 44.39602 8.92221 1011 ft 149 kts 286°
2026-04-16 14:22 44.39882 8.90833 813 ft 146 kts 286°
2026-04-16 14:23 44.40145 8.89445 633 ft 149 kts 287°
2026-04-16 14:23 44.40441 8.88068 388 ft 145 kts 283°
2026-04-16 14:23 44.40695 8.86735 208 ft 140 kts 285°
2026-04-16 14:23 44.40955 8.85438 18 ft 134 kts 284°
2026-04-16 14:24 44.41152 8.84404 10 ft 81 kts 285°
2026-04-16 14:24 44.41248 8.83926 9 ft 21 kts 286°
2026-04-16 14:24 44.41287 8.83802 9 ft 2 kts 311°
2026-04-16 14:24 44.41326 8.83766 9 ft 10 kts 332°
2026-04-16 14:25 44.41406 8.83765 11 ft 15 kts 35°
2026-04-16 14:25 44.41417 8.83846 9 ft 10 kts 103°
2026-04-16 14:25 44.41387 8.84001 9 ft 22 kts 105°
2026-04-16 14:25 44.41342 8.84226 9 ft 22 kts 106°
2026-04-16 14:26 44.41304 8.84420 9 ft 19 kts 104°
2026-04-16 14:26 44.41270 8.84603 10 ft 20 kts 105°
2026-04-16 14:26 44.41226 8.84814 10 ft 23 kts 105°
2026-04-16 14:26 44.41228 8.84913 10 ft 2 kts 31°
2026-04-16 14:27 44.41257 8.84926 11 ft 8 kts 17°
2026-04-16 14:27 44.41331 8.84948 9 ft 13 kts 352°
2026-04-16 14:27 44.41371 8.84864 10 ft 0 kts 287°
2026-04-16 14:27 44.41371 8.84863 10 ft 0 kts 287°
2026-04-16 14:28 44.41372 8.84863 10 ft 0 kts 285°
2026-04-16 14:28 44.41370 8.84859 9 ft 0 kts 249°
2026-04-16 14:28 44.41367 8.84853 9 ft 2 kts 243°
2026-04-16 14:28 44.41341 8.84824 9 ft 7 kts 200°
2026-04-16 14:29 44.41316 8.84815 9 ft 1 kts 192°
2026-04-16 14:29 44.41315 8.84815 9 ft 0 kts 192°